Boulder City, Nevada Weather observations

Data are for observation ending at time listed.
 Day   Time    Ave.   Ave.  Ave.  Vector   Max.   Stn.    Total    Solar   Ave.  
  of    of     Air    Rel.  Wind   Wind    Wind   Baro.  Precip.   Rad.    Soil  
Year   Day     Temp.  Hum.  Speed  Dir.    Gust   Pres.                    Temp. 
2026   (PST)    F      %     mph   deg.    mph     mb.     in.     W/m2     F   
------------------------------------------------------------------------------
 247   11:20   91.3    11   12.4   161     26.8   915.4    0.00     875    94.4
 247   11:30   91.5    10   10.5   168     21.1   915.3    0.00     878    94.8
 247   11:40   92.0    10   10.2   161     18.8   915.1    0.00     879    95.2
 247   11:50   92.6    10   10.5   147     21.0   915.0    0.00     878    95.8
 247   12:00   93.5     9   12.2   167     27.8   914.9    0.00     871    96.1
 247   12:10   92.7    10   11.4   159     25.8   914.8    0.00     867    96.5
 247   12:20   92.5    11   10.6   148     23.2   914.8    0.00     856    96.7
 247   12:30   92.3    11   11.7   157     25.1   914.7    0.00     851    97.0
 247   12:40   92.4    11   11.5   168     24.6   914.6    0.00     839    97.3
 247   12:50   93.1    11    9.3   154     25.3   914.5    0.00     828    97.6
 247   13:00   93.5    11   11.6   153     29.2   914.5    0.00     814    98.0
 247   13:10   93.7    10   12.3   161     29.8   914.5    0.00     797    98.2
 247   13:20   93.8    10   10.2   158     22.0   914.5    0.00     779    98.3
 247   13:30   94.2    10    8.9   146     21.0   914.5    0.00     762    98.7
 247   13:40   94.2    10   12.1   155     25.7   914.4    0.00     743    98.9
 247   13:50   94.1    10   13.2   161     23.8   914.4    0.00     722    99.2
 247   14:00   93.6    12   11.1   155     25.4   914.3    0.00     700    99.2
 247   14:10   94.5    11   10.2   148     24.0   914.2    0.00     678    99.5
 247   14:20   94.9    10    9.3   164     25.1   914.1    0.00     653    99.6
 247   14:30   94.8    10   10.9   152     23.4   914.2    0.00     628    99.9
 247   14:40   95.2     9   12.4   162     22.7   914.1    0.00     601    100.0
 247   14:50   95.2     8   11.1   157     22.1   914.0    0.00     571    100.0
 247   15:00   95.1     8   11.8   164     24.3   913.9    0.00     542    100.0
 247   15:10   94.9     8   12.7   171     23.1   913.9    0.00     511    100.0
 247   15:20   95.1     9   11.5   154     23.5   913.8    0.00     479    100.0
 247   15:30   95.0     9   10.6   162     20.1   913.7    0.00     446    99.7
 247   15:40   94.8     9   12.8   167     23.8   913.6    0.00     412    99.7
 247   15:50   94.4     9   13.5   163     23.3   913.7    0.00     379    99.3
 247   16:00   94.5     9   12.1   160     23.6   913.7    0.00     346    99.0
 247   16:10   94.6     8   12.4   161     21.9   913.6    0.00     312    98.9
 247   16:20   94.7     8   10.8   168     21.9   913.5    0.00     278    98.6
 247   16:30   93.8     9   11.3   155     23.5   913.6    0.00     245    98.5
 247   16:40   93.6     9   10.1   156     18.3   913.5    0.00     212    98.3
 247   16:50   93.5     9   10.5   165     24.0   913.5    0.00     180    98.2
 247   17:00   93.3     9   10.3   160     18.8   913.5    0.00     150    97.9
 247   17:10   93.0     9   10.6   169     20.5   913.5    0.00     122    97.8
 247   17:20   92.5     9    9.5   164     24.8   913.5    0.00      95    97.6
 247   17:30   91.9     9    8.9   170     16.6   913.4    0.00      70    97.4
 247   17:40   91.3     9    9.0   169     17.7   913.3    0.00      19    97.2
 247   17:50   90.9    10    8.9   173     17.2   913.2    0.00      12    97.0
 247   18:00   90.4     9    9.4   172     16.0   913.1    0.00       8    96.7
 247   18:10   90.0    10    7.2   174     12.9   913.1    0.00       3    96.5
 247   18:20   89.4    10    6.6   180     10.6   913.1    0.00       1    96.3
 247   18:30   88.9    10    7.5   184     12.3   913.1    0.00       0    96.0
 247   18:40   88.6    10    6.2   181     12.6   913.1    0.00       0    95.8
 247   18:50   88.2    10    6.3   166     12.5   913.1    0.00       0    95.5
 247   19:00   87.7    11    5.8   178     10.4   913.2    0.00       0    95.3
 247   19:10   87.3    11    6.0   183      9.7   913.3    0.00       0    95.1
 247   19:20   87.2    11    5.6   178     11.3   913.4    0.00       0    94.8
 247   19:30   87.1    11    6.4   175     12.0   913.4    0.00       0    94.5
 247   19:40   87.1    11    6.6   175     11.4   913.5    0.00       0    94.3
 247   19:50   86.8    11    6.6   186     13.1   913.6    0.00       0    94.1
 247   20:00   86.7    10    6.4   189     12.3   913.6    0.00       0    93.8
 247   20:10   86.5    10    5.8   184     11.2   913.6    0.00       0    93.8
 247   20:20   86.2    10    6.8   180     11.5   913.6    0.00       0    93.5
 247   20:30   86.0    10    7.9   187     13.4   913.7    0.00       0    93.2
 247   20:40   85.8    10    7.9   183     13.2   913.8    0.00       0    93.1
 247   20:50   85.0    10    5.4   204     11.1   913.8    0.00       0    92.8
 247   21:00   83.6    11    4.6   240      8.0   913.8    0.00       0    92.7
 247   21:10   83.0    11    6.7   230     12.6   913.8    0.00       0    92.4
 247   21:20   83.6    11    6.6   216     12.4   913.9    0.00       0    92.2
 247   21:30   82.8    11    5.8   231      8.8   913.9    0.00       0    92.1
 247   21:40   82.1    11    5.4   218      8.6   913.9    0.00       0    91.9
 247   21:50   81.8    12    5.3   232      9.4   913.9    0.00       0    91.6
 247   22:00   81.8    12    5.6   232      8.8   913.8    0.00       0    91.6
 247   22:10   81.6    12    4.8   233      7.7   913.9    0.00       0    91.4
 247   22:20   81.6    12    4.5   227      8.3   913.9    0.00       0    91.2
 247   22:30   80.6    12    2.5   189      4.1   913.9    0.00       0    91.0
 247   22:40   79.7    13    1.3   110      2.5   914.0    0.00       0    90.8
 247   22:50   78.6    14    2.2   128      3.9   914.0    0.00       0    90.6
 247   23:00   78.6    14    2.0   209      3.5   914.1    0.00       0    90.6
 247   23:10   78.1    14    1.5   250      5.0   914.2    0.00       0    90.3
 247   23:20   77.4    14    1.7   242      3.1   914.2    0.00       0    90.2
 247   23:30   77.4    14    1.2   218      3.0   914.3    0.00       0    90.0
 247   23:40   76.4    15    0.2   177      1.3   914.3    0.00       0    89.9
 247   23:50   75.4    16    0.9   192      1.8   914.4    0.00       0    89.7
 248    0:00   76.4    16    2.0   220      5.6   914.3    0.00       0    89.5
 248    0:10   78.6    14    3.8   219      6.6   914.3    0.00       0    89.3
 248    0:20   79.4    14    4.0   202      6.6   914.3    0.00       0    89.1
 248    0:30   79.4    14    4.5   205      8.0   914.4    0.00       0    89.0
 248    0:40   79.4    14    5.1   207      9.0   914.4    0.00       0    88.8
 248    0:50   78.5    14    4.5   212      7.2   914.5    0.00       0    88.7
 248    1:00   77.8    15    4.1   217      6.1   914.6    0.00       0    88.5
 248    1:10   77.1    16    3.3   210      5.0   914.7    0.00       0    88.3
 248    1:20   76.4    16    2.5   191      3.9   914.6    0.00       0    88.2
 248    1:30   76.1    18    3.6   228      6.6   914.5    0.00       0    88.1
 248    1:40   76.9    18    4.0   234      5.9   914.6    0.00       0    87.9
 248    1:50   76.8    18    4.5   241      6.3   914.6    0.00       0    87.8
 248    2:00   76.6    18    4.6   244      6.3   914.6    0.00       0    87.6
 248    2:10   76.3    19    4.6   240      5.9   914.7    0.00       0    87.4
 248    2:20   76.3    20    4.2   237      6.1   914.6    0.00       0    87.3
 248    2:30   75.8    20    2.6   217      4.4   914.7    0.00       0    87.1
 248    2:40   75.7    21    3.0   224      5.5   914.7    0.00       0    87.0
 248    2:50   75.5    21    2.9   206      5.0   914.7    0.00       0    86.9
 248    3:00   75.1    21    3.0   203      5.3   914.7    0.00       0    86.8
 248    3:10   75.0    22    3.4   202      6.5   914.7    0.00       0    86.6
 248    3:20   75.1    22    3.9   214      7.6   914.6    0.00       0    86.5
 248    3:30   75.4    22    5.2   224      9.0   914.6    0.00       0    86.4
 248    3:40   75.5    22    5.1   221      8.0   914.7    0.00       0    86.3
 248    3:50   75.3    22    3.4   192      5.9   914.7    0.00       0    86.1
 248    4:00   74.8    22    4.8   141      9.9   914.8    0.00       0    86.0
 248    4:10   74.8    22    4.6   166      7.2   914.8    0.00       0    85.9
 248    4:20   74.0    23    3.9   158      6.6   914.8    0.00       0    85.7
 248    4:30   74.4    23    4.4   171      6.9   914.8    0.00       0    85.6
 248    4:40   73.6    23    4.7   222      6.3   914.9    0.00       0    85.5
 248    4:50   72.8    24    4.6   226      7.3   914.8    0.00       0    85.4
 248    5:00   72.7    24    4.8   238      7.2   914.9    0.00       0    85.2
 248    5:10   72.7    24    3.9   218      6.4   914.9    0.00       2    85.1
 248    5:20   72.5    25    3.8   191      5.2   915.0    0.00       4    85.0
 248    5:30   72.2    25    3.0   196      4.7   915.2    0.00       8    84.9
 248    5:40   72.4    25    3.6   191      5.3   915.3    0.00      33    84.8
 248    5:50   73.6    24    3.6   193      5.8   915.5    0.00      93    84.6
 248    6:00   74.8    23    3.4   201      4.7   915.7    0.00     125    84.6
 248    6:10   75.9    23    3.2   207      5.6   915.9    0.00     159    84.4
 248    6:20   76.8    22    3.3   208      5.7   916.0    0.00     194    84.3
 248    6:30   77.6    21    4.2   207      8.0   916.2    0.00     228    84.2
 248    6:40   78.2    21    5.3   222      8.8   916.5    0.00     263    84.2
 248    6:50   78.8    20    5.7   222      9.2   916.7    0.00     298    84.1
 248    7:00   79.4    20    5.0   211      8.7   916.8    0.00     333    84.1
 248    7:10   80.0    19    5.8   211      9.8   917.0    0.00     367    84.1
 248    7:20   80.2    19    7.0   219     10.4   917.1    0.00     402    84.3
 248    7:30   81.2    18    6.0   216     11.0   917.1    0.00     435    84.5
 248    7:40   81.6    18    6.1   204      9.6   917.2    0.00     468    84.6
 248    7:50   82.4    17    6.2   198     10.2   917.2    0.00     500    84.9
 248    8:00   82.9    16    6.1   199     10.6   917.3    0.00     530    85.1
 248    8:10   83.4    16    6.1   203     10.0   917.4    0.00     559    85.4
 248    8:20   83.5    16    5.7   193      9.7   917.5    0.00     588    85.7
 248    8:30   84.2    15    5.3   184      8.8   917.6    0.00     616    86.0
 248    8:40   84.8    15    4.9   180      8.7   917.8    0.00     643    86.6
 248    8:50   84.7    15    4.7   190      8.2   917.8    0.00     669    87.0
 248    9:00   85.3    14    4.3   208      9.1   917.9    0.00     691    87.5
 248    9:10   86.0    14    2.9   209      6.5   917.9    0.00     702    88.0
 248    9:20   86.6    14    2.8   211      6.4   918.0    0.00     729    88.4
 248    9:30   88.1    13    3.9   131     13.1   918.0    0.00     505    88.8
 248    9:40   88.8    12    4.2   131     11.6   918.0    0.00      43    89.5
 248    9:50   89.6    12    3.5   110      9.4   917.9    0.00      43    90.1
 248   10:00   90.1    11    4.0   107     11.5   918.0    0.00     339    90.8
 248   10:10   90.2    11    6.5    98     11.8   918.1    0.00     708    91.3
 248   10:20   90.0    11    6.9   150     13.0   918.0    0.00     422    92.0
 248   10:30   90.3    11    5.2   113     14.6   918.0    0.00     751    92.6
 248   10:40   90.9    11    5.6   109     12.4   917.9    0.00     842    93.2
 248   10:50   92.1    11    5.5    98     12.9   918.0    0.00     845    93.7
 248   11:00   92.2    11    5.8   118     17.4   917.7    0.00     842    94.4
 248   11:10   93.5    10    5.5   168     14.2   917.7    0.00     844    95.0

Return to Boulder City, Nevada graphs page.


Western Regional Climate Center,wrcc@dri.edu